Weather History for KETH - June, 2013

Change the Weather History Date:

Wednesday, June 26, 2013

  Actual Average Record
Temperature  
Mean Temperature 74 °F -  
Max Temperature 84 °F 82 °F 94 °F (1964)
Min Temperature 64 °F 57 °F 46 °F (1992)
Cooling Degree Days 9    
Growing Degree Days 24 (Base 50)    
Moisture  
Dew Point 66 °F    
Average Humidity 75    
Maximum Humidity 100    
Minimum Humidity 48    
Precipitation  
Precipitation 0.10 in - - ()
Sea Level Pressure  
Sea Level Pressure 29.76 in    
Wind  
Wind Speed 8 mph (West)    
Max Wind Speed 24 mph    
Max Gust Speed 31 mph    
Visibility 10 miles    
Events Rain , Thunderstorm    
Averages and records for this station are not official NWS values.
T = Trace of Precipitation, MM = Missing Value Source: NWS Daily Summary

Daily Weather History Graph

Daily Weather History Graph

Search for Another Location

Airport or City:

Trip Planner

Search our weather history database for the weather conditions in past years. The results will help you decide how hot, cold, wet, or windy it might be!

Date:

Astronomy

Jun. 26, 2013 Rise Set
Actual Time 5:37 AM CDT 9:20 PM CDT
Civil Twilight 4:59 AM CDT 9:58 PM CDT
Nautical Twilight 4:08 AM CDT 10:49 PM CDT
Astronomical Twilight 2:57 AM CDT 12:00 AM CDT
Moon 11:29 PM CDT (6/26) 9:43 AM CDT (6/26)
Length of Visible Light 16h 58m
Length of Day
15h 42m
Waning Gibbous, 85% of the Moon is Illuminated
Jun 26
Waning Gibbous
Jun 29
Last Quarter
Jul 8
New
Jul 15
First Quarter
Jul 22
Full

Hourly Weather History & Observations

Time (CDT) Temp. Heat Index Dew Point Humidity Pressure Visibility Wind Dir Wind Speed Gust Speed Precip Events Conditions
12:15 AM 75.2 °F - 71.6 °F 89% 29.67 in 10.0 mi SE 6.9 mph - N/A   Clear
12:35 AM 75.2 °F - 71.6 °F 89% 29.65 in 10.0 mi SSE 8.1 mph - N/A   Clear
12:55 AM 75.2 °F - 71.6 °F 89% 29.66 in 10.0 mi South 8.1 mph - N/A   Clear
1:15 AM 75.2 °F - 69.8 °F 83% 29.72 in 10.0 mi WSW 24.2 mph 29.9 mph N/A Thunderstorm Scattered Clouds
1:34 AM 71.6 °F - 62.6 °F 73% 29.70 in 10.0 mi WSW 19.6 mph 27.6 mph N/A Thunderstorm Thunderstorm
1:54 AM 66.2 °F - 62.6 °F 88% 29.68 in 7.0 mi SW 15.0 mph 31.1 mph 0.02 in Rain , Thunderstorm Thunderstorms and Rain
2:15 AM 66.2 °F - 62.6 °F 88% 29.68 in 10.0 mi South 10.4 mph - 0.02 in Rain , Thunderstorm Light Thunderstorms and Rain
2:35 AM 66.2 °F - 62.6 °F 88% 29.67 in 7.0 mi Calm Calm - 0.03 in Rain , Thunderstorm Rain
2:55 AM 66.2 °F - 62.6 °F 88% 29.68 in 10.0 mi SSW 6.9 mph - 0.06 in Rain , Thunderstorm Rain
3:15 AM 66.2 °F - 62.6 °F 88% 29.68 in 10.0 mi SW 5.8 mph - 0.02 in Rain , Thunderstorm Light Thunderstorms and Rain
3:35 AM 64.4 °F - 64.4 °F 100% 29.68 in 10.0 mi Calm Calm - 0.02 in Thunderstorm Clear
3:54 AM 64.4 °F - 64.4 °F 100% 29.67 in 10.0 mi South 4.6 mph - 0.02 in   Clear
4:15 AM 64.4 °F - 64.4 °F 100% 29.67 in 10.0 mi East 3.5 mph - N/A Thunderstorm Clear
4:34 AM 64.4 °F - 64.4 °F 100% 29.67 in 7.0 mi Calm Calm - N/A   Scattered Clouds
4:55 AM 64.4 °F - 64.4 °F 100% 29.68 in 10.0 mi NE 4.6 mph - N/A   Clear
5:15 AM 64.4 °F - 64.4 °F 100% 29.69 in 10.0 mi ESE 4.6 mph - N/A   Scattered Clouds
5:35 AM 64.4 °F - 64.4 °F 100% 29.69 in 10.0 mi SE 3.5 mph - N/A   Overcast
5:55 AM 66.2 °F - 64.4 °F 94% 29.69 in 10.0 mi Calm Calm - N/A   Overcast
6:15 AM 66.2 °F - 64.4 °F 94% 29.70 in 10.0 mi Calm Calm - N/A   Mostly Cloudy
6:35 AM 66.2 °F - 64.4 °F 94% 29.70 in 10.0 mi SE 3.5 mph - N/A   Mostly Cloudy
6:55 AM 68.0 °F - 66.2 °F 94% 29.71 in 10.0 mi Calm Calm - N/A   Overcast
7:15 AM 69.8 °F - 66.2 °F 88% 29.71 in 10.0 mi Calm Calm - N/A   Scattered Clouds
7:35 AM 71.6 °F - 68.0 °F 88% 29.72 in 10.0 mi WSW 4.6 mph - N/A   Clear
7:55 AM 73.4 °F - 68.0 °F 83% 29.72 in 10.0 mi West 6.9 mph - N/A   Clear
8:15 AM 73.4 °F - 68.0 °F 83% 29.72 in 10.0 mi West 6.9 mph - N/A   Clear
8:35 AM 73.4 °F - 68.0 °F 83% 29.72 in 10.0 mi West 11.5 mph 18.4 mph N/A   Clear
8:55 AM 73.4 °F - 68.0 °F 83% 29.73 in 10.0 mi West 11.5 mph - N/A   Clear
9:15 AM 75.2 °F - 68.0 °F 78% 29.73 in 10.0 mi WNW 12.7 mph 16.1 mph N/A   Clear
9:35 AM 75.2 °F - 68.0 °F 78% 29.74 in 10.0 mi WNW 11.5 mph 18.4 mph N/A   Clear
9:55 AM 75.2 °F - 68.0 °F 78% 29.75 in 10.0 mi WNW 13.8 mph 18.4 mph N/A   Clear
10:15 AM 77.0 °F - 68.0 °F 74% 29.75 in 10.0 mi West 10.4 mph - N/A   Clear
10:35 AM 78.8 °F - 68.0 °F 69% 29.76 in 10.0 mi WNW 12.7 mph - N/A   Clear
10:55 AM 78.8 °F - 68.0 °F 69% 29.76 in 10.0 mi WNW 11.5 mph - N/A   Clear
11:14 AM 78.8 °F - 68.0 °F 69% 29.77 in 10.0 mi WNW 10.4 mph 18.4 mph N/A   Clear
11:35 AM 80.6 °F 82.7 °F 66.2 °F 61% 29.78 in 10.0 mi WNW 13.8 mph 19.6 mph N/A   Clear
11:55 AM 80.6 °F 82.7 °F 66.2 °F 61% 29.78 in 10.0 mi WNW 10.4 mph - N/A   Clear
12:15 PM 80.6 °F 83.2 °F 68.0 °F 65% 29.79 in 10.0 mi NW 12.7 mph 18.4 mph N/A   Clear
12:35 PM 80.6 °F 82.7 °F 66.2 °F 61% 29.79 in 10.0 mi WNW 12.7 mph 19.6 mph N/A   Scattered Clouds
12:54 PM 82.4 °F 84.6 °F 66.2 °F 58% 29.79 in 10.0 mi WNW 13.8 mph 18.4 mph N/A   Scattered Clouds
1:15 PM 82.4 °F 83.9 °F 64.4 °F 54% 29.80 in 10.0 mi WNW 16.1 mph 19.6 mph N/A   Clear
1:35 PM 82.4 °F 83.9 °F 64.4 °F 54% 29.80 in 10.0 mi WNW 15.0 mph 21.9 mph N/A   Clear
1:55 PM 82.4 °F 83.4 °F 62.6 °F 51% 29.80 in 10.0 mi NW 16.1 mph 21.9 mph N/A   Clear
2:15 PM 84.2 °F 85.6 °F 64.4 °F 51% 29.80 in 10.0 mi WNW 12.7 mph - N/A   Clear
2:34 PM 82.4 °F 83.4 °F 62.6 °F 51% 29.80 in 10.0 mi WNW 18.4 mph 23.0 mph N/A   Clear
2:55 PM 84.2 °F 85.0 °F 62.6 °F 48% 29.80 in 10.0 mi WNW 11.5 mph 19.6 mph N/A   Clear
3:16 PM 84.2 °F 85.0 °F 62.6 °F 48% 29.80 in 10.0 mi WNW 15.0 mph - N/A   Clear
3:34 PM 84.2 °F 85.6 °F 64.4 °F 51% 29.80 in 10.0 mi WNW 12.7 mph - N/A   Clear
3:54 PM 84.2 °F 85.0 °F 62.6 °F 48% 29.80 in 10.0 mi WNW 13.8 mph 18.4 mph N/A   Clear
4:15 PM 84.2 °F 85.0 °F 62.6 °F 48% 29.80 in 10.0 mi WNW 9.2 mph - N/A   Clear
4:35 PM 84.2 °F 85.0 °F 62.6 °F 48% 29.80 in 10.0 mi NW 9.2 mph - N/A   Clear
4:56 PM 84.2 °F 85.0 °F 62.6 °F 48% 29.80 in 10.0 mi WNW 11.5 mph 17.3 mph N/A   Clear
5:14 PM 84.2 °F 85.0 °F 62.6 °F 48% 29.79 in 10.0 mi WNW 9.2 mph - N/A   Clear
5:35 PM 84.2 °F 85.0 °F 62.6 °F 48% 29.80 in 10.0 mi WNW 8.1 mph - N/A   Clear
5:55 PM 82.4 °F 83.9 °F 64.4 °F 54% 29.79 in 10.0 mi WNW 4.6 mph - N/A   Clear
6:14 PM 82.4 °F 83.9 °F 64.4 °F 54% 29.79 in 10.0 mi Calm Calm - N/A   Clear
6:34 PM 80.6 °F 82.7 °F 66.2 °F 61% 29.81 in 10.0 mi WNW 3.5 mph - N/A   Clear
6:54 PM 80.6 °F 82.3 °F 64.4 °F 58% 29.81 in 10.0 mi Calm Calm - N/A   Clear
7:15 PM 80.6 °F 82.7 °F 66.2 °F 61% 29.82 in 10.0 mi Calm Calm - N/A   Clear
7:35 PM 78.8 °F - 68.0 °F 69% 29.81 in 10.0 mi Calm Calm - N/A   Clear
7:54 PM 75.2 °F - 64.4 °F 69% 29.83 in 10.0 mi WNW 16.1 mph 29.9 mph N/A Rain Light Rain
8:14 PM 71.6 °F - 66.2 °F 83% 29.83 in 10.0 mi West 4.6 mph 17.3 mph N/A Rain Light Rain
8:34 PM 71.6 °F - 66.2 °F 83% 29.81 in 10.0 mi Calm Calm - N/A   Scattered Clouds
8:55 PM 71.6 °F - 66.2 °F 83% 29.81 in 10.0 mi SW 4.6 mph - N/A   Clear
9:14 PM 71.6 °F - 64.4 °F 78% 29.81 in 10.0 mi SSW 5.8 mph - N/A   Clear
9:35 PM 69.8 °F - 66.2 °F 88% 29.81 in 10.0 mi SSW 6.9 mph - N/A   Clear
9:54 PM 69.8 °F - 66.2 °F 88% 29.82 in 10.0 mi South 5.8 mph - N/A   Clear
10:15 PM 69.8 °F - 66.2 °F 88% 29.82 in 10.0 mi SSW 5.8 mph - N/A   Clear
10:34 PM 69.8 °F - 66.2 °F 88% 29.82 in 10.0 mi South 8.1 mph - N/A   Clear
10:55 PM 69.8 °F - 66.2 °F 88% 29.82 in 10.0 mi SSW 8.1 mph - N/A   Clear
11:15 PM 69.8 °F - 66.2 °F 88% 29.83 in 10.0 mi SW 5.8 mph - N/A   Clear
11:35 PM 69.8 °F - 66.2 °F 88% 29.83 in 10.0 mi West 3.5 mph - N/A   Clear
11:55 PM 69.8 °F - 64.4 °F 83% 29.83 in 10.0 mi SW 8.1 mph - N/A   Clear